contact:dominique.lefevre@mio.osupytheas.fr, maurice.libes@osupytheas.fr, didier.mallarino@osupytheas.fr
Project:EMSO http://www.emso-fr.org/EMSO-France
Depth: 2436.0 m
Title:EMSO Ligure Ouest : Data MII capteur AQUADOPP
Date,Latitude,Longitude,X_East,Y_North,Z_Up,Amplitude_X,Amplitude_Y,Amplitude_Z,Batterie,SoundSpeed,Heading,Pitch,Roll,Pressure,TIS,Speed,Direction
, degrees North, degrees East, m.s-1, m.s-1,m.s-1, 1, 1, 1, Volt, m.s-1, degree, degree, degree, dbar, degree_C, m.s-1, degree
2019-10-28T00:04:05,42.805,6.029,-0.008,0.027,-0.014,102.0,106.0,100.0,13.4,1505.1,323.8,-0.8,1.9,2470.357,13.27,0.028,343.5
2019-10-28T00:07:06,42.805,6.029,-0.006,0.0,-0.025,103.0,107.0,99.0,13.3,1505.2,325.0,-0.7,1.8,2470.292,13.29,0.006,270.0
2019-10-28T00:10:07,42.805,6.029,0.0,0.033,0.004,102.0,107.0,99.0,13.3,1505.3,323.8,-0.7,1.8,2470.147,13.31,0.033,0.0
2019-10-28T00:13:08,42.805,6.029,-0.018,0.019,-0.018,102.0,106.0,99.0,13.4,1505.3,324.4,-0.7,1.8,2470.043,13.31,0.026,316.5
2019-10-28T00:16:09,42.805,6.029,-0.014,0.014,-0.026,102.0,106.0,98.0,13.3,1505.3,323.0,-0.7,1.8,2469.95,13.32,0.019,315.0
2019-10-28T00:19:10,42.805,6.029,-0.021,0.028,-0.023,103.0,106.0,99.0,13.3,1505.3,324.4,-0.7,1.8,2469.912,13.33,0.035,323.1
2019-10-28T00:22:11,42.805,6.029,-0.014,0.033,-0.025,102.0,107.0,99.0,13.4,1505.3,327.0,-0.7,1.8,2469.829,13.33,0.035,337.0
2019-10-28T00:25:12,42.805,6.029,-0.003,0.015,0.005,104.0,107.0,99.0,13.4,1505.3,328.0,-0.7,1.8,2469.814,13.33,0.015,348.7
2019-10-28T00:28:13,42.805,6.029,-0.021,0.016,-0.015,102.0,108.0,99.0,13.3,1505.3,325.9,-0.7,1.8,2469.776,13.33,0.026,307.3
2019-10-28T00:31:14,42.805,6.029,-0.016,0.015,-0.044,103.0,108.0,100.0,13.4,1505.3,325.4,-0.7,1.8,2469.704,13.33,0.021,313.1
2019-10-28T00:34:15,42.805,6.029,0.015,0.023,-0.008,102.0,109.0,100.0,13.3,1505.3,326.6,-0.7,1.8,2469.748,13.33,0.027,33.1
2019-10-28T00:37:16,42.805,6.029,-0.028,0.021,0.006,102.0,108.0,100.0,13.3,1505.4,325.6,-0.7,1.8,2469.722,13.34,0.035,306.9
2019-10-28T00:40:17,42.805,6.029,-0.001,0.019,0.004,102.0,107.0,99.0,13.4,1505.4,324.4,-0.7,1.9,2469.695,13.34,0.019,357.0
2019-10-28T00:43:18,42.805,6.029,0.0,0.004,0.011,101.0,108.0,99.0,13.4,1505.4,325.8,-0.7,1.8,2469.765,13.34,0.004,0.0
2019-10-28T00:46:19,42.805,6.029,-0.011,0.011,-0.023,103.0,108.0,100.0,13.3,1505.4,326.6,-0.7,1.8,2469.72,13.34,0.015,315.0
2019-10-28T00:49:20,42.805,6.029,0.005,0.033,-0.009,103.0,107.0,99.0,13.4,1505.4,324.7,-0.7,1.8,2469.722,13.34,0.033,8.6
2019-10-28T00:52:21,42.805,6.029,-0.024,0.01,-0.069,101.0,107.0,100.0,13.4,1505.4,324.5,-0.7,1.8,2469.741,13.34,0.026,292.6
2019-10-28T00:55:22,42.805,6.029,-0.03,0.009,-0.005,101.0,108.0,99.0,13.4,1505.4,324.9,-0.7,1.8,2469.745,13.34,0.031,286.7
2019-10-28T00:58:23,42.805,6.029,-0.028,0.019,-0.01,101.0,106.0,99.0,13.4,1505.4,325.2,-0.7,1.8,2469.731,13.34,0.033,304.2
2019-10-28T01:01:24,42.805,6.029,0.0,0.028,0.008,102.0,108.0,99.0,13.4,1505.3,324.9,-0.7,1.8,2469.723,13.33,0.028,0.0
2019-10-28T01:04:25,42.805,6.029,0.004,0.003,-0.018,103.0,108.0,99.0,13.4,1505.3,326.7,-0.7,1.9,2469.782,13.33,0.005,53.1
2019-10-28T01:07:26,42.805,6.029,-0.003,0.03,-0.033,102.0,108.0,98.0,13.4,1505.3,325.1,-0.7,1.8,2469.77,13.33,0.03,354.3
2019-10-28T01:10:27,42.805,6.029,-0.023,0.021,-0.003,100.0,107.0,99.0,13.4,1505.4,326.3,-0.7,1.8,2469.786,13.34,0.031,312.4
2019-10-28T01:13:28,42.805,6.029,-0.006,0.003,-0.031,103.0,107.0,99.0,13.3,1505.3,324.7,-0.7,1.8,2469.765,13.33,0.006,296.6
2019-10-28T01:16:29,42.805,6.029,-0.013,0.015,-0.011,102.0,108.0,99.0,13.4,1505.3,327.5,-0.7,1.8,2469.774,13.33,0.019,319.1
2019-10-28T01:19:30,42.805,6.029,-0.01,0.008,-0.001,102.0,107.0,99.0,13.4,1505.4,323.3,-0.8,1.8,2469.78,13.34,0.012,308.7
2019-10-28T01:22:31,42.805,6.029,0.003,-0.003,-0.023,101.0,107.0,100.0,13.4,1505.4,328.1,-0.8,1.8,2469.718,13.34,0.004,135.0
2019-10-28T01:25:32,42.805,6.029,-0.033,0.015,-0.013,103.0,110.0,99.0,13.4,1505.4,325.7,-0.7,1.9,2469.747,13.34,0.036,294.4
2019-10-28T01:28:33,42.805,6.029,-0.035,0.029,-0.029,101.0,109.0,99.0,13.4,1505.3,326.6,-0.7,1.8,2469.807,13.33,0.045,309.6
2019-10-28T01:31:34,42.805,6.029,-0.036,0.029,0.005,102.0,106.0,100.0,13.4,1505.3,325.8,-0.7,1.8,2469.765,13.33,0.046,308.9
2019-10-28T01:34:35,42.805,6.029,-0.018,0.011,-0.028,101.0,108.0,100.0,13.4,1505.3,325.9,-0.7,1.9,2469.771,13.33,0.021,301.4
2019-10-28T01:37:36,42.805,6.029,-0.024,0.009,-0.033,101.0,109.0,99.0,13.3,1505.4,323.9,-0.7,1.8,2469.745,13.34,0.025,290.6
2019-10-28T01:40:37,42.805,6.029,-0.005,0.01,-0.027,103.0,109.0,98.0,13.4,1505.4,324.4,-0.7,1.8,2469.766,13.34,0.011,333.4
2019-10-28T01:43:38,42.805,6.029,-0.013,0.02,-0.018,102.0,109.0,100.0,13.3,1505.4,325.0,-0.7,1.8,2469.769,13.34,0.023,327.0
2019-10-28T01:46:39,42.805,6.029,-0.013,0.021,-0.017,101.0,109.0,100.0,13.4,1505.3,325.7,-0.7,1.8,2469.776,13.33,0.024,328.2
2019-10-28T01:49:40,42.805,6.029,-0.027,0.034,-0.02,101.0,109.0,100.0,13.3,1505.3,324.9,-0.7,1.8,2469.73,13.33,0.043,321.5
2019-10-28T01:52:41,42.805,6.029,-0.011,0.029,-0.02,104.0,109.0,99.0,13.4,1505.3,328.2,-0.7,1.8,2469.794,13.33,0.031,339.2
2019-10-28T01:55:42,42.805,6.029,-0.014,0.03,0.012,104.0,109.0,99.0,13.4,1505.3,325.4,-0.7,1.8,2469.793,13.33,0.033,335.0
2019-10-28T01:58:43,42.805,6.029,-0.024,0.051,0.001,103.0,108.0,99.0,13.4,1505.3,326.6,-0.7,1.9,2469.797,13.33,0.056,334.8
2019-10-28T02:01:44,42.805,6.029,-0.011,0.011,-0.035,102.0,109.0,100.0,13.4,1505.3,327.0,-0.7,1.8,2469.743,13.33,0.015,315.0
2019-10-28T02:04:45,42.805,6.029,-0.007,0.017,0.0,101.0,110.0,99.0,13.3,1505.3,327.0,-0.7,1.8,2469.775,13.33,0.018,337.6
2019-10-28T02:07:46,42.805,6.029,-0.018,0.011,0.008,102.0,109.0,99.0,13.4,1505.3,326.0,-0.7,1.8,2469.793,13.33,0.021,301.4
2019-10-28T02:10:47,42.805,6.029,-0.014,0.034,0.032,101.0,109.0,100.0,13.3,1505.3,327.5,-0.7,1.8,2469.786,13.33,0.036,337.6
2019-10-28T02:13:48,42.805,6.029,-0.01,0.017,-0.015,102.0,110.0,100.0,13.4,1505.3,325.8,-0.7,1.8,2469.81,13.33,0.019,329.5
2019-10-28T02:16:49,42.805,6.029,-0.012,0.036,0.024,103.0,110.0,99.0,13.4,1505.3,324.9,-0.7,1.9,2469.824,13.33,0.037,341.6
2019-10-28T02:19:50,42.805,6.029,-0.002,-0.001,-0.012,103.0,109.0,99.0,13.3,1505.3,325.8,-0.7,1.8,2469.803,13.33,0.002,243.4
2019-10-28T02:22:51,42.805,6.029,-0.016,0.021,-0.017,102.0,109.0,99.0,13.4,1505.3,325.9,-0.7,1.9,2469.812,13.33,0.026,322.7
2019-10-28T02:25:52,42.805,6.029,-0.02,0.015,0.006,102.0,108.0,99.0,13.4,1505.3,325.5,-0.7,1.8,2469.823,13.33,0.025,306.9
2019-10-28T02:28:53,42.805,6.029,0.0,0.02,0.021,103.0,109.0,100.0,13.4,1505.3,326.8,-0.7,1.8,2469.889,13.33,0.02,0.0
2019-10-28T02:31:54,42.805,6.029,-0.007,0.032,-0.025,103.0,108.0,100.0,13.3,1505.3,327.1,-0.7,1.8,2469.838,13.33,0.032,347.7
2019-10-28T02:34:55,42.805,6.029,-0.001,0.003,0.003,102.0,107.0,99.0,13.3,1505.3,326.8,-0.7,1.8,2469.832,13.33,0.003,341.6
2019-10-28T02:37:56,42.805,6.029,-0.017,0.041,-0.036,102.0,109.0,100.0,13.4,1505.3,324.0,-0.7,1.9,2469.809,13.33,0.044,337.5
2019-10-28T02:40:57,42.805,6.029,-0.036,0.024,-0.011,102.0,111.0,99.0,13.4,1505.3,328.0,-0.7,1.8,2469.871,13.33,0.043,303.7
2019-10-28T02:43:58,42.805,6.029,-0.014,0.024,-0.019,102.0,111.0,99.0,13.4,1505.3,328.1,-0.7,1.8,2469.817,13.33,0.027,329.7
2019-10-28T02:46:59,42.805,6.029,-0.011,0.026,-0.024,102.0,111.0,98.0,13.4,1505.3,327.4,-0.7,1.8,2469.858,13.33,0.028,337.1
2019-10-28T02:50:00,42.805,6.029,-0.002,0.031,-0.029,101.0,112.0,100.0,13.4,1505.3,326.5,-0.7,1.8,2469.906,13.33,0.031,356.3
2019-10-28T02:53:01,42.805,6.029,-0.015,0.029,-0.024,103.0,109.0,99.0,13.4,1505.3,327.1,-0.7,1.8,2469.79,13.33,0.032,332.6
2019-10-28T02:56:02,42.805,6.029,-0.012,0.015,-0.035,102.0,111.0,99.0,13.3,1505.3,324.9,-0.7,1.8,2469.853,13.33,0.019,321.3
2019-10-28T02:59:03,42.805,6.029,-0.016,0.037,-0.005,103.0,109.0,99.0,13.4,1505.3,327.9,-0.7,1.8,2469.849,13.33,0.04,336.6
2019-10-28T03:02:04,42.805,6.029,0.003,0.025,-0.014,102.0,112.0,99.0,13.4,1505.3,325.7,-0.7,1.9,2469.844,13.33,0.025,6.8
2019-10-28T03:05:05,42.805,6.029,-0.015,0.029,-0.013,101.0,110.0,99.0,13.4,1505.3,325.0,-0.7,1.8,2469.865,13.33,0.032,332.6
2019-10-28T03:08:06,42.805,6.029,0.002,0.029,-0.02,102.0,110.0,100.0,13.4,1505.3,325.0,-0.7,1.8,2469.811,13.33,0.029,3.9
2019-10-28T03:11:07,42.805,6.029,-0.014,0.002,-0.004,102.0,109.0,100.0,13.4,1505.3,324.7,-0.7,1.8,2469.846,13.33,0.014,278.1
2019-10-28T03:14:08,42.805,6.029,-0.021,0.0,-0.002,102.0,107.0,100.0,13.3,1505.3,325.0,-0.7,1.8,2469.845,13.33,0.021,270.0
2019-10-28T03:17:09,42.805,6.029,-0.018,0.034,-0.022,101.0,111.0,100.0,13.3,1505.3,327.0,-0.7,1.8,2469.875,13.33,0.038,332.1
2019-10-28T03:20:10,42.805,6.029,-0.016,0.029,-0.016,103.0,109.0,101.0,13.4,1505.3,326.5,-0.7,1.8,2469.866,13.33,0.033,331.1
2019-10-28T03:23:11,42.805,6.029,-0.02,0.018,-0.044,102.0,111.0,99.0,13.3,1505.3,324.8,-0.7,1.8,2469.868,13.33,0.026,312.0
2019-10-28T03:26:12,42.805,6.029,-0.007,0.043,-0.04,101.0,109.0,100.0,13.3,1505.3,327.6,-0.7,1.8,2469.856,13.33,0.043,350.8
2019-10-28T03:29:13,42.805,6.029,-0.016,0.015,-0.034,104.0,110.0,99.0,13.4,1505.3,323.6,-0.7,1.8,2469.832,13.33,0.021,313.1
2019-10-28T03:32:14,42.805,6.029,-0.017,0.008,-0.032,103.0,110.0,99.0,13.4,1505.3,325.0,-0.7,1.8,2469.9,13.33,0.018,295.2
2019-10-28T03:35:15,42.805,6.029,0.0,0.004,-0.047,101.0,109.0,99.0,13.4,1505.3,325.2,-0.7,1.8,2469.917,13.33,0.004,0.0
2019-10-28T03:38:16,42.805,6.029,-0.014,0.02,-0.009,102.0,111.0,99.0,13.4,1505.3,327.2,-0.7,1.8,2469.923,13.33,0.024,325.0
2019-10-28T03:41:17,42.805,6.029,-0.004,0.009,-0.015,103.0,110.0,99.0,13.4,1505.3,324.2,-0.6,1.8,2469.899,13.33,0.009,336.0
2019-10-28T03:44:18,42.805,6.029,-0.018,0.035,-0.032,102.0,108.0,99.0,13.4,1505.3,328.3,-0.7,1.8,2469.892,13.33,0.039,332.8
2019-10-28T03:47:19,42.805,6.029,-0.025,0.005,0.004,103.0,108.0,99.0,13.4,1505.3,328.1,-0.7,1.8,2469.935,13.33,0.025,281.3
2019-10-28T03:50:20,42.805,6.029,0.015,0.029,0.0,103.0,109.0,100.0,13.4,1505.3,324.7,-0.7,1.8,2469.88,13.33,0.032,27.4
2019-10-28T03:53:21,42.805,6.029,0.015,0.035,0.0,103.0,109.0,100.0,13.4,1505.3,326.8,-0.7,1.8,2469.909,13.33,0.038,23.2
2019-10-28T03:56:22,42.805,6.029,-0.023,0.044,-0.015,101.0,111.0,98.0,13.3,1505.3,325.2,-0.7,1.8,2469.937,13.33,0.049,332.4
2019-10-28T03:59:23,42.805,6.029,-0.018,0.029,-0.022,102.0,111.0,99.0,13.4,1505.3,324.7,-0.7,1.8,2469.95,13.33,0.034,328.2
2019-10-28T04:02:24,42.805,6.029,0.001,0.028,-0.028,101.0,112.0,99.0,13.3,1505.3,327.0,-0.7,1.8,2469.936,13.33,0.028,2.0
2019-10-28T04:05:25,42.805,6.029,-0.003,0.033,0.007,102.0,111.0,99.0,13.4,1505.3,324.7,-0.7,1.8,2469.951,13.33,0.033,354.8
2019-10-28T04:08:26,42.805,6.029,-0.009,0.044,-0.016,101.0,112.0,99.0,13.4,1505.3,324.8,-0.7,1.9,2469.894,13.33,0.044,348.4
2019-10-28T04:11:27,42.805,6.029,-0.005,0.036,0.012,102.0,109.0,100.0,13.4,1505.3,324.9,-0.7,1.8,2469.944,13.33,0.036,352.1
2019-10-28T04:14:28,42.805,6.029,-0.013,0.045,-0.003,101.0,111.0,99.0,13.4,1505.3,324.8,-0.7,1.8,2469.933,13.33,0.046,343.9
2019-10-28T04:17:29,42.805,6.029,-0.038,0.021,-0.026,103.0,111.0,99.0,13.4,1505.3,324.0,-0.7,1.8,2469.954,13.33,0.043,298.9
2019-10-28T04:20:30,42.805,6.029,-0.025,0.055,-0.021,100.0,110.0,99.0,13.4,1505.3,325.5,-0.7,1.8,2470.021,13.33,0.06,335.6
2019-10-28T04:23:31,42.805,6.029,0.004,0.037,-0.016,102.0,110.0,99.0,13.4,1505.3,325.9,-0.7,1.8,2469.937,13.33,0.037,6.2
2019-10-28T04:26:32,42.805,6.029,-0.015,0.043,-0.017,102.0,110.0,100.0,13.4,1505.3,324.1,-0.7,1.8,2469.952,13.33,0.045,340.8
2019-10-28T04:29:33,42.805,6.029,-0.022,0.043,-0.018,102.0,111.0,100.0,13.4,1505.3,328.4,-0.7,1.9,2469.986,13.33,0.048,332.9
2019-10-28T04:32:34,42.805,6.029,-0.008,0.048,-0.011,101.0,110.0,100.0,13.4,1505.3,323.0,-0.7,1.8,2469.921,13.33,0.048,350.5
2019-10-28T04:35:35,42.805,6.029,-0.033,0.032,-0.038,103.0,112.0,98.0,13.3,1505.3,322.9,-0.7,1.8,2469.976,13.33,0.045,314.1
2019-10-28T04:38:36,42.805,6.029,-0.031,0.016,-0.014,102.0,111.0,99.0,13.4,1505.3,325.9,-0.7,1.9,2469.992,13.33,0.034,297.3
2019-10-28T04:41:37,42.805,6.029,-0.021,0.048,-0.032,101.0,111.0,100.0,13.3,1505.3,325.3,-0.7,1.8,2469.968,13.33,0.052,336.4
2019-10-28T04:44:38,42.805,6.029,-0.021,0.049,-0.018,102.0,110.0,99.0,13.4,1505.3,326.7,-0.7,1.8,2469.996,13.33,0.053,336.8
2019-10-28T04:47:39,42.805,6.029,-0.011,0.035,0.007,100.0,110.0,99.0,13.3,1505.3,327.1,-0.7,1.8,2469.973,13.33,0.036,342.6
2019-10-28T04:50:40,42.805,6.029,-0.013,0.031,-0.047,103.0,110.0,99.0,13.4,1505.3,324.8,-0.7,1.9,2470.009,13.33,0.033,337.3
2019-10-28T04:53:41,42.805,6.029,-0.037,0.039,-0.004,103.0,112.0,99.0,13.4,1505.3,323.2,-0.7,1.8,2470.01,13.33,0.053,316.5
2019-10-28T04:56:42,42.805,6.029,-0.026,0.043,-0.038,102.0,112.0,99.0,13.4,1505.3,328.4,-0.8,1.8,2470.008,13.33,0.05,328.8
2019-10-28T04:59:43,42.805,6.029,-0.015,0.034,-0.038,101.0,111.0,99.0,13.4,1505.3,326.2,-0.7,1.8,2470.017,13.33,0.037,336.2
2019-10-28T05:02:44,42.805,6.029,-0.001,0.029,-0.02,102.0,110.0,99.0,13.3,1505.3,324.0,-0.7,1.8,2470.003,13.33,0.029,358.0
2019-10-28T05:05:45,42.805,6.029,0.002,0.029,0.02,102.0,110.0,99.0,13.4,1505.3,326.3,-0.7,1.8,2469.99,13.33,0.029,3.9
2019-10-28T05:08:46,42.805,6.029,-0.015,0.051,0.014,102.0,111.0,99.0,13.3,1505.3,327.6,-0.7,1.8,2470.02,13.33,0.053,343.6
2019-10-28T05:11:47,42.805,6.029,-0.018,0.033,-0.056,101.0,110.0,100.0,13.4,1505.3,325.6,-0.7,1.8,2470.016,13.33,0.037,331.4
2019-10-28T05:14:48,42.805,6.029,-0.029,0.029,-0.014,101.0,111.0,99.0,13.4,1505.3,324.3,-0.7,1.8,2469.984,13.33,0.041,315.0
2019-10-28T05:17:49,42.805,6.029,-0.027,0.025,-0.006,103.0,109.0,99.0,13.4,1505.3,325.1,-0.7,1.8,2470.007,13.33,0.036,312.8
2019-10-28T05:20:50,42.805,6.029,-0.043,0.032,-0.019,102.0,110.0,99.0,13.4,1505.3,324.3,-0.8,1.9,2470.048,13.33,0.053,306.7
2019-10-28T05:23:51,42.805,6.029,-0.03,0.039,-0.011,103.0,110.0,99.0,13.3,1505.3,327.9,-0.7,1.8,2470.01,13.33,0.049,322.4
2019-10-28T05:26:52,42.805,6.029,-0.02,0.052,0.017,100.0,110.0,99.0,13.4,1505.3,327.4,-0.7,1.8,2470.084,13.33,0.055,339.0
2019-10-28T05:29:53,42.805,6.029,-0.034,0.014,-0.029,103.0,110.0,99.0,13.4,1505.3,325.4,-0.7,1.9,2470.014,13.33,0.036,292.4
2019-10-28T05:32:54,42.805,6.029,-0.027,0.03,-0.009,102.0,111.0,99.0,13.4,1505.3,327.0,-0.7,1.8,2470.026,13.33,0.04,318.0
2019-10-28T05:35:55,42.805,6.029,-0.015,0.012,0.009,102.0,109.0,100.0,13.4,1505.3,326.7,-0.7,1.8,2470.025,13.33,0.019,308.7
2019-10-28T05:38:56,42.805,6.029,-0.037,0.029,-0.026,102.0,112.0,99.0,13.3,1505.3,323.5,-0.7,1.8,2470.003,13.33,0.047,308.1
2019-10-28T05:41:57,42.805,6.029,-0.003,0.034,0.036,102.0,110.0,99.0,13.4,1505.3,326.6,-0.7,1.9,2470.056,13.33,0.034,355.0
2019-10-28T05:44:58,42.805,6.029,-0.026,0.041,-0.044,101.0,108.0,100.0,13.3,1505.3,323.2,-0.7,1.8,2470.074,13.33,0.048,327.6
2019-10-28T05:47:59,42.805,6.029,-0.003,0.037,-0.019,103.0,110.0,99.0,13.4,1505.3,326.8,-0.7,1.8,2470.073,13.33,0.037,355.4
2019-10-28T05:51:00,42.805,6.029,-0.013,0.018,-0.024,103.0,110.0,99.0,13.4,1505.3,325.7,-0.7,1.8,2470.056,13.33,0.022,324.2
2019-10-28T05:54:01,42.805,6.029,-0.013,0.031,-0.023,102.0,111.0,99.0,13.4,1505.3,328.5,-0.7,1.8,2470.053,13.33,0.033,337.3
2019-10-28T05:57:02,42.805,6.029,-0.008,0.023,-0.048,102.0,110.0,99.0,13.4,1505.3,324.8,-0.7,1.8,2470.039,13.33,0.024,340.8
2019-10-28T06:00:03,42.805,6.029,-0.029,0.044,-0.012,102.0,110.0,99.0,13.4,1505.3,328.4,-0.8,1.8,2470.069,13.33,0.052,326.6
